Year,Month,Day,Hour,Minute,Value (Times are PST for temperature in C)
2018,05,19,09,19,15.20
2018,05,19,09,20,15.30
2018,05,19,09,21,15.30
2018,05,19,09,22,15.30
2018,05,19,09,23,15.30
2018,05,19,09,24,15.30
2018,05,19,09,25,15.30
2018,05,19,09,26,15.40
2018,05,19,09,27,15.30
2018,05,19,09,28,15.30
2018,05,19,09,29,15.40
2018,05,19,09,30,15.40
2018,05,19,09,31,15.40
2018,05,19,09,32,15.40
2018,05,19,09,33,15.40
2018,05,19,09,34,15.40
2018,05,19,09,35,15.40
2018,05,19,09,36,15.50
2018,05,19,09,37,15.50
2018,05,19,09,38,15.40
2018,05,19,09,39,15.40
2018,05,19,09,40,15.40
2018,05,19,09,41,15.30
2018,05,19,09,42,15.30
2018,05,19,09,43,15.30
2018,05,19,09,44,15.40
2018,05,19,09,45,15.40
2018,05,19,09,46,15.30
2018,05,19,09,47,15.30
2018,05,19,09,48,15.30
2018,05,19,09,49,15.30
2018,05,19,09,50,15.30
2018,05,19,09,51,15.20
2018,05,19,09,52,15.20
2018,05,19,09,53,15.20
2018,05,19,09,54,15.20
2018,05,19,09,55,15.20
2018,05,19,09,56,15.20
2018,05,19,09,57,15.20
2018,05,19,09,58,15.20
2018,05,19,09,59,15.20
2018,05,19,10,00,15.20
2018,05,19,10,01,15.20
2018,05,19,10,02,15.20
2018,05,19,10,03,15.20
2018,05,19,10,19,14.90
2018,05,19,10,20,14.90
2018,05,19,10,21,14.90
2018,05,19,10,22,14.80
2018,05,19,10,23,14.80
2018,05,19,10,24,14.70
2018,05,19,10,25,14.70
2018,05,19,10,26,14.70
2018,05,19,10,27,14.70
2018,05,19,10,28,14.60
2018,05,19,10,29,14.60
2018,05,19,10,30,14.60
2018,05,19,10,31,14.60
2018,05,19,10,32,14.60
2018,05,19,10,33,14.60
2018,05,19,10,34,14.60
2018,05,19,10,35,14.60
2018,05,19,10,36,14.70
2018,05,19,10,37,14.60
2018,05,19,10,38,14.60
2018,05,19,10,39,14.60
2018,05,19,10,40,14.60
2018,05,19,10,41,14.70
2018,05,19,10,42,14.70
2018,05,19,10,43,14.70
2018,05,19,10,44,14.70
2018,05,19,10,45,14.70
2018,05,19,10,46,14.70
2018,05,19,10,47,14.70
2018,05,19,10,48,14.70
2018,05,19,10,49,14.70
2018,05,19,10,50,14.70
2018,05,19,10,51,14.60
2018,05,19,10,52,14.60
2018,05,19,10,53,14.60
2018,05,19,10,54,14.60
2018,05,19,10,55,14.60
2018,05,19,10,56,14.60
2018,05,19,10,57,14.60
2018,05,19,10,58,14.60
2018,05,19,10,59,14.60
2018,05,19,11,00,14.60
2018,05,19,11,01,14.60
2018,05,19,11,02,14.60
2018,05,19,11,03,14.60
2018,05,19,11,04,14.60
2018,05,19,11,05,14.60
2018,05,19,11,06,14.60
2018,05,19,11,07,14.60
2018,05,19,11,08,14.60
2018,05,19,11,09,14.60
2018,05,19,11,10,14.70
2018,05,19,11,11,14.70
2018,05,19,11,12,14.70
2018,05,19,11,13,14.70
2018,05,19,11,14,14.70
2018,05,19,11,15,14.70
2018,05,19,11,16,14.70
2018,05,19,11,17,14.80
2018,05,19,11,18,14.80
2018,05,19,11,19,14.80
2018,05,19,11,20,14.80
2018,05,19,11,21,14.80
2018,05,19,11,22,14.80
2018,05,19,11,23,14.80
2018,05,19,11,24,14.80
2018,05,19,11,25,14.80
2018,05,19,11,26,14.90
2018,05,19,11,27,14.90
2018,05,19,11,28,14.90
2018,05,19,11,29,14.90
2018,05,19,11,30,14.80
2018,05,19,11,31,14.80
2018,05,19,11,32,14.80
2018,05,19,11,33,14.80
2018,05,19,11,34,14.80
2018,05,19,11,35,14.90
2018,05,19,11,36,15.00
2018,05,19,11,37,15.10
2018,05,19,11,38,15.20
2018,05,19,11,39,15.30
2018,05,19,11,40,15.30
2018,05,19,11,41,15.30
2018,05,19,11,42,15.30
2018,05,19,11,43,15.30
2018,05,19,11,44,15.30
2018,05,19,11,45,15.30
2018,05,19,11,46,15.30
2018,05,19,11,47,15.40
2018,05,19,11,48,15.40
2018,05,19,11,49,15.40
2018,05,19,11,50,15.40
2018,05,19,11,51,15.40
2018,05,19,11,52,15.40
2018,05,19,11,53,15.40
2018,05,19,11,54,15.50
2018,05,19,11,55,15.60
2018,05,19,11,56,15.70
2018,05,19,11,57,15.80
2018,05,19,11,58,15.80
2018,05,19,11,59,15.90
2018,05,19,12,00,15.90
2018,05,19,12,01,15.90
2018,05,19,12,02,15.90
2018,05,19,12,03,15.90
2018,05,19,12,04,15.90
2018,05,19,12,05,15.90
2018,05,19,12,06,15.80
2018,05,19,12,07,15.80
2018,05,19,12,08,15.70
2018,05,19,12,09,15.70
2018,05,19,12,10,15.70
2018,05,19,12,11,15.70
2018,05,19,12,12,15.70
2018,05,19,12,13,15.70
2018,05,19,12,14,15.70
2018,05,19,12,15,15.70
2018,05,19,12,16,15.70
2018,05,19,12,17,15.60
2018,05,19,12,18,15.60
2018,05,19,12,19,15.60
2018,05,19,12,20,15.50
2018,05,19,12,21,15.50
2018,05,19,12,22,15.50
2018,05,19,12,23,15.50
2018,05,19,12,24,15.40
2018,05,19,12,25,15.40
2018,05,19,12,26,15.40
2018,05,19,12,27,15.40
2018,05,19,12,28,15.40
2018,05,19,12,29,15.40
2018,05,19,12,30,15.50
2018,05,19,12,31,15.50
2018,05,19,12,32,15.50
2018,05,19,12,33,15.60
2018,05,19,12,34,15.50
2018,05,19,12,35,15.50
2018,05,19,12,36,15.60
2018,05,19,12,37,15.60
2018,05,19,12,38,15.60
2018,05,19,12,39,15.60
2018,05,19,12,40,15.60
2018,05,19,12,41,15.60
2018,05,19,12,42,15.70
2018,05,19,12,43,15.70
2018,05,19,12,44,15.70
2018,05,19,12,45,15.80
2018,05,19,12,46,15.90
2018,05,19,12,47,15.90
2018,05,19,12,48,15.90
2018,05,19,12,49,16.00
2018,05,19,12,50,16.10
2018,05,19,12,51,16.20
2018,05,19,12,52,16.30
2018,05,19,12,53,16.40
2018,05,19,12,54,16.50
2018,05,19,12,55,16.60
2018,05,19,12,56,16.60
2018,05,19,12,57,16.70
2018,05,19,12,58,16.60
2018,05,19,12,59,16.60
2018,05,19,13,00,16.60
2018,05,19,13,01,16.60
2018,05,19,13,02,16.60
2018,05,19,13,03,16.70
2018,05,19,13,04,16.80
2018,05,19,13,05,16.90
2018,05,19,13,06,17.00
2018,05,19,13,07,17.00
2018,05,19,13,08,16.90
2018,05,19,13,09,16.80
2018,05,19,13,10,16.80
2018,05,19,13,11,16.70
2018,05,19,13,12,16.70
2018,05,19,13,13,16.60
2018,05,19,13,14,16.60
2018,05,19,13,15,16.50
2018,05,19,13,16,16.50
2018,05,19,13,17,16.40
2018,05,19,13,18,16.30
2018,05,19,13,19,16.30
2018,05,19,13,20,16.20
2018,05,19,13,21,16.10
2018,05,19,13,22,16.10
2018,05,19,13,23,16.10
2018,05,19,13,24,16.10
2018,05,19,13,25,16.10
2018,05,19,13,26,16.10
2018,05,19,13,27,16.10
2018,05,19,13,28,16.10
2018,05,19,13,29,16.00
2018,05,19,13,30,16.00
2018,05,19,13,31,15.90
2018,05,19,13,32,15.90
2018,05,19,13,33,15.80
2018,05,19,13,34,15.80
2018,05,19,13,35,15.70
2018,05,19,13,36,15.70
2018,05,19,13,37,15.70
2018,05,19,13,38,15.70
2018,05,19,13,39,15.70
2018,05,19,13,40,15.80
2018,05,19,13,41,15.80
2018,05,19,13,42,15.90
2018,05,19,13,43,15.90
2018,05,19,13,44,16.00
2018,05,19,13,45,16.00
2018,05,19,13,46,16.10
2018,05,19,13,47,16.20
2018,05,19,13,48,16.20
2018,05,19,13,49,16.20
2018,05,19,13,50,16.20
2018,05,19,13,51,16.30
2018,05,19,13,52,16.30
2018,05,19,13,53,16.40
2018,05,19,13,54,16.50
2018,05,19,13,55,16.60
2018,05,19,13,56,16.70
2018,05,19,13,57,16.80
2018,05,19,13,58,16.90
2018,05,19,13,59,17.00
2018,05,19,14,00,17.00
2018,05,19,14,01,17.00
2018,05,19,14,02,17.10
2018,05,19,14,03,16.90
2018,05,19,14,04,16.80
2018,05,19,14,05,16.80
2018,05,19,14,06,16.80
2018,05,19,14,07,16.80
2018,05,19,14,08,16.80
2018,05,19,14,09,16.80
2018,05,19,14,10,16.80
2018,05,19,14,11,16.90
2018,05,19,14,12,16.90
2018,05,19,14,13,16.90
2018,05,19,14,14,16.90
2018,05,19,14,15,16.80
2018,05,19,14,16,16.70
2018,05,19,14,17,16.70
2018,05,19,14,18,16.60
2018,05,19,14,19,16.60
2018,05,19,14,20,16.50
2018,05,19,14,21,16.40
2018,05,19,14,22,16.40
2018,05,19,14,23,16.40
2018,05,19,14,24,16.40
2018,05,19,14,25,16.50
2018,05,19,14,26,16.50
2018,05,19,14,27,16.50
2018,05,19,14,28,16.60
2018,05,19,14,29,16.60
2018,05,19,14,30,16.50
2018,05,19,14,31,16.50
2018,05,19,14,32,16.60
2018,05,19,14,33,16.50
2018,05,19,14,34,16.50
2018,05,19,14,35,16.40
2018,05,19,14,36,16.30
2018,05,19,14,37,16.20
2018,05,19,14,38,16.20
2018,05,19,14,39,16.20
2018,05,19,14,40,16.30
2018,05,19,14,41,16.40
2018,05,19,14,42,16.40
2018,05,19,14,43,16.30
2018,05,19,14,44,16.30
2018,05,19,14,45,16.20
2018,05,19,14,46,16.20
2018,05,19,14,47,16.20
2018,05,19,14,48,16.20
2018,05,19,14,49,16.20
2018,05,19,14,50,16.10
2018,05,19,14,51,16.10
2018,05,19,14,52,16.10
2018,05,19,14,53,16.10
2018,05,19,14,54,16.20
2018,05,19,14,55,16.10
2018,05,19,14,56,16.20
2018,05,19,14,57,16.20
2018,05,19,14,58,16.30
2018,05,19,14,59,16.30
2018,05,19,15,00,16.30
2018,05,19,15,01,16.30
2018,05,19,15,02,16.30
2018,05,19,15,03,16.30
2018,05,19,15,04,16.30
2018,05,19,15,05,16.30
2018,05,19,15,06,16.30
2018,05,19,15,07,16.30
2018,05,19,15,08,16.30
2018,05,19,15,09,16.40
2018,05,19,15,10,16.40
2018,05,19,15,11,16.50
2018,05,19,15,12,16.60
2018,05,19,15,13,16.70
2018,05,19,15,14,16.80
2018,05,19,15,15,16.80
2018,05,19,15,16,16.80
2018,05,19,15,17,16.80
2018,05,19,15,18,16.80
2018,05,19,15,19,16.80
2018,05,19,15,20,16.80
2018,05,19,15,21,16.80
2018,05,19,15,22,16.80
2018,05,19,15,23,16.80
2018,05,19,15,24,16.80
2018,05,19,15,25,16.80
2018,05,19,15,26,16.80
2018,05,19,15,27,16.80
2018,05,19,15,28,16.80
2018,05,19,15,29,16.90
2018,05,19,15,30,16.90
2018,05,19,15,31,17.00
2018,05,19,15,32,17.10
2018,05,19,15,33,17.10
2018,05,19,15,34,17.20
2018,05,19,15,35,17.30
2018,05,19,15,36,17.30
2018,05,19,15,37,17.40
2018,05,19,15,38,17.50
2018,05,19,15,39,17.70
2018,05,19,15,40,17.80
2018,05,19,15,41,17.80
2018,05,19,15,42,17.90
2018,05,19,15,43,17.90
2018,05,19,15,44,17.90
2018,05,19,15,45,18.00
2018,05,19,15,46,18.10
2018,05,19,15,47,18.30
2018,05,19,15,48,18.40
2018,05,19,15,49,18.40
2018,05,19,15,50,18.50
2018,05,19,15,51,18.40
2018,05,19,15,52,18.40
2018,05,19,15,53,18.40
2018,05,19,15,54,18.40
2018,05,19,15,55,18.30
2018,05,19,15,56,18.20
2018,05,19,15,57,18.20
2018,05,19,15,58,18.10
2018,05,19,15,59,18.10
2018,05,19,16,00,18.10
2018,05,19,16,01,18.10
2018,05,19,16,02,18.10
2018,05,19,16,03,18.10
2018,05,19,16,04,18.00
2018,05,19,16,05,18.00
2018,05,19,16,06,18.00
2018,05,19,16,07,18.10
2018,05,19,16,08,18.10
2018,05,19,16,09,18.00
2018,05,19,16,10,18.00
2018,05,19,16,11,17.90
2018,05,19,16,12,17.90
2018,05,19,16,13,17.80
2018,05,19,16,14,17.70
2018,05,19,16,15,17.70
2018,05,19,16,16,17.60
2018,05,19,16,17,17.60
2018,05,19,16,18,17.50
2018,05,19,16,19,17.50
2018,05,19,16,20,17.40
2018,05,19,16,21,17.40
2018,05,19,16,22,17.40
2018,05,19,16,23,17.30
2018,05,19,16,24,17.30
2018,05,19,16,25,17.30
2018,05,19,16,26,17.20
2018,05,19,16,27,17.20
2018,05,19,16,28,17.20
2018,05,19,16,29,17.10
2018,05,19,16,30,17.10
2018,05,19,16,31,17.10
2018,05,19,16,32,17.10
2018,05,19,16,33,17.10
2018,05,19,16,34,17.10
2018,05,19,16,35,17.10
2018,05,19,16,36,17.10
2018,05,19,16,37,17.10
2018,05,19,16,38,17.10
2018,05,19,16,39,17.10
2018,05,19,16,40,17.10
2018,05,19,16,41,17.10
2018,05,19,16,42,17.10
2018,05,19,16,43,17.10
2018,05,19,16,44,17.00
2018,05,19,16,45,17.00
2018,05,19,16,46,17.00
2018,05,19,16,47,17.00
2018,05,19,16,48,17.10
2018,05,19,16,49,17.10
2018,05,19,16,50,17.10
2018,05,19,16,51,17.10
2018,05,19,16,52,17.10
2018,05,19,16,53,17.20
2018,05,19,16,54,17.20
2018,05,19,16,55,17.20
2018,05,19,16,56,17.20
2018,05,19,16,57,17.20
2018,05,19,16,58,17.20
2018,05,19,16,59,17.20
2018,05,19,17,00,17.20
2018,05,19,17,01,17.20
2018,05,19,17,02,17.20
2018,05,19,17,03,17.20
2018,05,19,17,04,17.20
2018,05,19,17,05,17.20
2018,05,19,17,06,17.20
2018,05,19,17,07,17.30
2018,05,19,17,08,17.30
2018,05,19,17,09,17.30
2018,05,19,17,10,17.30
2018,05,19,17,11,17.30
2018,05,19,17,12,17.20
2018,05,19,17,13,17.20
2018,05,19,17,14,17.20
2018,05,19,17,15,17.10
2018,05,19,17,16,17.10
2018,05,19,17,17,17.00
2018,05,19,17,18,17.00
2018,05,19,17,19,17.00
2018,05,19,17,20,16.90
2018,05,19,17,21,16.90
2018,05,19,17,22,16.90
2018,05,19,17,23,16.90
2018,05,19,17,24,16.90
2018,05,19,17,25,16.90
2018,05,19,17,26,16.90
2018,05,19,17,27,16.90
2018,05,19,17,28,16.90
2018,05,19,17,29,16.90
2018,05,19,17,30,16.80
2018,05,19,17,31,16.80
2018,05,19,17,32,16.80
2018,05,19,17,33,16.80
2018,05,19,17,34,16.70
2018,05,19,17,35,16.70
2018,05,19,17,36,16.70
2018,05,19,17,37,16.70
2018,05,19,17,38,16.70
2018,05,19,17,39,16.60
2018,05,19,17,40,16.60
2018,05,19,17,41,16.60
2018,05,19,17,42,16.60
2018,05,19,17,43,16.60
2018,05,19,17,44,16.50
2018,05,19,17,45,16.50
2018,05,19,17,46,16.40
2018,05,19,17,47,16.40
2018,05,19,17,48,16.40
2018,05,19,17,49,16.40
2018,05,19,17,50,16.40
2018,05,19,17,51,16.40
2018,05,19,17,52,16.40
2018,05,19,17,53,16.40
2018,05,19,17,54,16.40
2018,05,19,17,55,16.40
2018,05,19,17,56,16.40
2018,05,19,17,57,16.40
2018,05,19,17,58,16.40
2018,05,19,17,59,16.40
2018,05,19,18,00,16.40
2018,05,19,18,01,16.40
2018,05,19,18,02,16.40
2018,05,19,18,03,16.40
2018,05,19,18,04,16.40
2018,05,19,18,05,16.40
2018,05,19,18,06,16.40
2018,05,19,18,07,16.40
2018,05,19,18,08,16.40
2018,05,19,18,09,16.40
2018,05,19,18,10,16.40
2018,05,19,18,11,16.40
2018,05,19,18,12,16.50
2018,05,19,18,13,16.50
2018,05,19,18,14,16.50
2018,05,19,18,15,16.50
2018,05,19,18,16,16.40
2018,05,19,18,17,16.40
2018,05,19,18,18,16.40
2018,05,19,18,19,16.40
2018,05,19,18,20,16.40
2018,05,19,18,21,16.40
2018,05,19,18,22,16.40
2018,05,19,18,23,16.40
2018,05,19,18,24,16.40
2018,05,19,18,25,16.40
2018,05,19,18,26,16.40
2018,05,19,18,27,16.40
2018,05,19,18,28,16.40
2018,05,19,18,29,16.40
2018,05,19,18,30,16.40
2018,05,19,18,31,16.40
2018,05,19,18,32,16.30
2018,05,19,18,33,16.30
2018,05,19,18,34,16.30
2018,05,19,18,35,16.30
2018,05,19,18,36,16.30
2018,05,19,18,37,16.30
2018,05,19,18,38,16.20
2018,05,19,18,39,16.20
2018,05,19,18,40,16.20
2018,05,19,18,41,16.20
2018,05,19,18,42,16.20
2018,05,19,18,43,16.20
2018,05,19,18,44,16.20
2018,05,19,18,45,16.20
2018,05,19,18,46,16.20
2018,05,19,18,47,16.20
2018,05,19,18,48,16.20
2018,05,19,18,49,16.20
2018,05,19,18,50,16.20
2018,05,19,18,51,16.20
2018,05,19,18,52,16.20
2018,05,19,18,53,16.20
2018,05,19,18,54,16.20
2018,05,19,18,55,16.20
2018,05,19,18,56,16.20
2018,05,19,18,57,16.20
2018,05,19,18,58,16.20
2018,05,19,18,59,16.20
2018,05,19,19,00,16.20
2018,05,19,19,01,16.20
2018,05,19,19,02,16.20
2018,05,19,19,03,16.20
2018,05,19,19,04,16.20
2018,05,19,19,05,16.20
2018,05,19,19,06,16.20
2018,05,19,19,07,16.20
2018,05,19,19,08,16.20
2018,05,19,19,09,16.20
2018,05,19,19,10,16.20
2018,05,19,19,11,16.20
2018,05,19,19,12,16.20
2018,05,19,19,13,16.20
2018,05,19,19,14,16.20
2018,05,19,19,15,16.30
2018,05,19,19,16,16.30
2018,05,19,19,17,16.30
2018,05,19,19,18,16.40
2018,05,19,19,19,16.40
2018,05,19,19,20,16.40
2018,05,19,19,21,16.40
2018,05,19,19,22,16.40
2018,05,19,19,23,16.40
2018,05,19,19,24,16.40
2018,05,19,19,25,16.50
2018,05,19,19,26,16.50
2018,05,19,19,27,16.60
2018,05,19,19,28,16.60
2018,05,19,19,29,16.60
2018,05,19,19,30,16.60
2018,05,19,19,31,16.60
2018,05,19,19,32,16.60
2018,05,19,19,33,16.60
2018,05,19,19,34,16.60
2018,05,19,19,35,16.60
2018,05,19,19,36,16.60
2018,05,19,19,37,16.60
2018,05,19,19,38,16.60
2018,05,19,19,39,16.60
2018,05,19,19,40,16.60
